weather.gov     
National Weather Service

Regional Weather Roundup
NWS Homepage
This page is being discontinued on March 12, 2014.
The same data is available at this site. Please update your bookmarks.
Thank you, and we apologize for the inconvenience.
Please send an email to SR-SRH.Webmaster@noaa.gov with any concerns.


Current Version
Previous Version:    01  02  03  04  05  06  07  08  09  10  11  12  13  14  15  16  17  18  19  20  21  22  23  24  25  26  27  28  29  30  
   31  32  33  34  35  36  37  38  39  40  41  42  43  44  45  46  47  48  49  50  51  52  53  54  55  56  57  58  59  60  
[Printable]
832
ASUS42 KMHX 170922
RWRMHX
WEATHER ROUNDUP FOR EASTERN NORTH CAROLINA
NATIONAL WEATHER SERVICE NEWPORT/MOREHEAD CITY NC
500 AM EDT WED SEP 17 2014

NOTE: "FAIR" INDICATES FEW OR NO CLOUDS BELOW 12,000 FEET
WITH NO SIGNIFICANT WEATHER AND/OR OBSTRUCTIONS TO VISIBILITY

NCZ015>017-031-032-045>047-102-103-171000-
NORTH COAST

CITY           SKY/WX    TMP DP  RH WIND       PRES   REMARKS
EDENTON        CLOUDY    67  65  91 N6        29.95F
ELIZABETH CITY CLOUDY    71  65  81 N8        29.95S
KITTY HAWK     CLOUDY    73  63  69 E7        29.94S
MANTEO         CLOUDY    73  64  73 NE8       29.95R

$$

NCZ045>047-081-094-103-104-171000-
CENTRAL COAST

CITY           SKY/WX    TMP DP  RH WIND       PRES   REMARKS
FRISCO         CLOUDY    70  67  90 E6        29.92S
SWANQUARTER      N/A     70 N/A N/A NE5       29.88S

$$

NCZ095-097-098-100-101-171000-
SOUTHERN COAST

CITY           SKY/WX    TMP DP  RH WIND       PRES   REMARKS
BEAUFORT       CLOUDY    73  70  90 E6        29.90S
CEDAR ISLAND     N/A     73 N/A N/A E14       29.94S
JACKSONVILLE   MOCLDY    69  66  90 NW5       29.91S
NEWPORT        NOT AVBL
PINEY ISLAND   CLOUDY    74  71  91 SE7       29.90F
WILMINGTON     MOCLDY    66  65  96 E7        29.89F


$$

NCZ011>013-027>030-043-044-078>080-089-090>093-098-171000-
COASTAL PLAIN

CITY           SKY/WX    TMP DP  RH WIND       PRES   REMARKS
AHOSKIE        CLOUDY    66  61  84 N5        29.97F
CLINTON        CLOUDY    65  65 100 N5        29.94R
ELIZABETHTOWN  CLOUDY    66  66 100 NW5       29.92S
GOLDSBORO      CLOUDY    70  68  94 CALM      29.91F
GREENVILLE     CLOUDY    70  64  83 N8        29.96S
HAVELOCK       CLOUDY    71  69  93 CALM      29.91S
KENANSVILLE    CLOUDY    66  64  93 NW5       29.93S
KINSTON        CLOUDY    70  69  96 N6        29.93F
NEW BERN       CLOUDY    74  70  87 E5        29.91F
RICHLANDS      MOCLDY    66  63  88 CALM      29.90F
ROANOKE RAPIDS NOT AVBL
ROCKY MOUNT    CLOUDY    68  65  90 NE8       29.95S
WASHINGTON     CLOUDY    67  65  93 NE7       29.94S
WHITEVILLE     MOCLDY    67  64  93 CALM      29.91S

$$

AMZ130-135-150-152-154-156-158-170-250-252-270-ANZ085-086-088-633-658-670-171000-
MARINE OBSERVATIONS

STATION/POSITION TIME  TEMP    WIND        PRES    WAVE   SWELL
                       AIR SEA DIR/SP/G            HT/PER HT/PER
                 (UTC) (F)     (DEG/KT/KT) (MB)    (FT/S) (FT/S)
CHESAPEAKE LIGHT 0900   71      50/ 12/ 13 1015.6
BUOY 44014       0900   74 77   60/ 12/ 16 1014.2    3/16   3/16
DUCK             0900   74 76   60/ 13/ 15 1013.4
2E DUCK          0900                        N/A     3/15   2/15
OREGON INLET     0900   74 76   50/  8/ 12 1013.7
BUOY 44095       0900      76                N/A     3/12   2/12
20E OREGON INLET NOT AVBL
HATTERAS CG      0900   73 80   70/  6/  8 1013.4
DIAMOND BUOY     0900   75     360/  6/ 10 1013.2    3/15   3/15
CAPE LOOKOUT     0900   73      80/ 10/ 11 1012.1
BEAUFORT LAB     0900   72 80   90/  4/  6 1011.9
30 SE NEW RIVER  0900   76 81   40/ 12/ 14 1011.9    3/12   2/12
5 SE WRIGHTSVILL 0900   68 81   20/ 14/ 16   N/A
BUOY 41002       0822   74 82  170/  8/ 12 1012.5    6/15   7/15
BUOY 41004       0900   74 83  320/ 14/ 19 1012.1    2/12   2/12

$$




U.S. Dept. of Commerce
NOAA National Weather Service
1325 East West Highway
Silver Spring, MD 20910
E-mail: w-nws.webmaster@noaa.gov
Page last modified: May 16, 2007
NATIONAL WEATHER SERVICE: for Safety, for Work, for Fun - FOR LIFE